Newark, OH

6:35 PM EDT on August 28, 2016 (GMT -0400)
Newark Heath

Weather History for KVTA - March, 2014

Change the Weather History Date:

Wednesday, March 12, 2014

  Actual Average Record
Temperature  
Mean Temperature 35 °F -  
Max Temperature 51 °F 49 °F 76 °F (1990)
Min Temperature 18 °F 30 °F -3 °F (1948)
Degree Days  
Heating Degree Days 30    
Moisture  
Dew Point 31 °F    
Average Humidity 80    
Maximum Humidity 93    
Minimum Humidity 57    
Precipitation  
Precipitation 0.64 in - - ()
Sea Level Pressure  
Sea Level Pressure 29.46 in    
Wind  
Wind Speed 9 mph (North)    
Max Wind Speed 29 mph    
Max Gust Speed 44 mph    
Visibility 5 miles    
Events Rain , Snow    
Averages and records for this station are not official NWS values.
T = Trace of Precipitation, MM = Missing Value Source: NWS Daily Summary

Daily Weather History Graph

Daily Weather History Graph

Search for Another Location

Airport or City:

Trip Planner

Search our weather history database for the weather conditions in past years. The results will help you decide how hot, cold, wet, or windy it might be!

Date:

Astronomy

Mar. 12, 2014 Rise Set
Actual Time 7:46 AM EDT 7:33 PM EDT
Civil Twilight 7:19 AM EDT 8:00 PM EDT
Nautical Twilight 6:47 AM EDT 8:32 PM EDT
Astronomical Twilight 6:16 AM EDT 9:03 PM EDT
Moon 4:03 PM EDT (3/12) 5:17 AM EDT (3/12)
Length of Visible Light 12h 41m
Length of Day
11h 47m
Waxing Gibbous, 85% of the Moon is Illuminated
Mar 12
Waxing Gibbous
Mar 16
Full
Mar 23
Last Quarter
Mar 30
New
Apr 7
First Quarter

Hourly Weather History & Observations

Time (EDT) Temp. Windchill Dew Point Humidity Pressure Visibility Wind Dir Wind Speed Gust Speed Precip Events Conditions
12:54 AM 51.1 °F - 39.9 °F 66% 29.58 in 10.0 mi Calm Calm - N/A   Scattered Clouds
1:54 AM 50.0 °F - 35.1 °F 57% 29.54 in 10.0 mi NNE 5.8 mph - N/A   Scattered Clouds
2:54 AM 48.9 °F - 35.1 °F 59% 29.50 in 10.0 mi NNE 6.9 mph - N/A   Overcast
3:54 AM 46.0 °F 44.8 °F 37.0 °F 71% 29.48 in 7.0 mi NE 3.5 mph - 0.00 in Rain Light Rain
4:54 AM 44.1 °F 42.5 °F 37.9 °F 79% 29.43 in 5.0 mi NE 3.5 mph - 0.02 in Rain Light Rain
5:54 AM 43.0 °F 37.7 °F 37.9 °F 82% 29.40 in 3.0 mi NNW 9.2 mph - 0.06 in Rain Rain
6:01 AM 43.0 °F 37.2 °F 39.0 °F 86% 29.41 in 2.0 mi North 10.4 mph - 0.03 in Rain Rain
6:26 AM 43.0 °F 40.3 °F 39.0 °F 86% 29.37 in 4.0 mi NE 4.6 mph - 0.09 in Rain Light Rain
6:49 AM 42.8 °F 39.3 °F 39.2 °F 87% 29.36 in 2.5 mi ENE 5.8 mph - 0.18 in Rain Rain
6:54 AM 42.1 °F 37.1 °F 39.0 °F 89% 29.35 in 2.5 mi ENE 8.1 mph - 0.20 in Rain Rain
7:15 AM 42.1 °F 37.7 °F 39.0 °F 89% 29.33 in 3.0 mi NE 6.9 mph - 0.05 in Rain Rain
7:22 AM 42.1 °F 37.1 °F 39.0 °F 89% 29.32 in 2.5 mi ENE 8.1 mph - 0.07 in Rain Light Rain
7:39 AM 42.1 °F 37.7 °F 39.0 °F 89% 29.32 in 3.0 mi ENE 6.9 mph - 0.10 in Rain Light Rain
7:46 AM 42.1 °F 39.2 °F 39.0 °F 89% 29.32 in 2.5 mi NE 4.6 mph - 0.11 in Rain Light Rain
7:54 AM 42.1 °F 37.7 °F 39.0 °F 89% 29.31 in 2.5 mi NE 6.9 mph - 0.13 in Rain Rain
8:08 AM 42.1 °F 38.4 °F 39.0 °F 89% 29.30 in 3.0 mi NE 5.8 mph - 0.01 in Rain Light Rain
8:43 AM 42.1 °F 37.7 °F 39.0 °F 89% 29.27 in 2.0 mi ENE 6.9 mph - 0.03 in Rain Light Rain
8:54 AM 42.1 °F 40.2 °F 39.0 °F 89% 29.27 in 2.5 mi Variable 3.5 mph - 0.03 in Rain Light Rain
9:23 AM 41.0 °F 35.8 °F 39.0 °F 93% 29.24 in 1.8 mi ENE 8.1 mph - 0.01 in Rain Light Rain
9:54 AM 41.0 °F 37.1 °F 39.0 °F 93% 29.25 in 1.5 mi North 5.8 mph - 0.04 in Rain Light Rain
10:20 AM 41.0 °F 33.5 °F 37.9 °F 89% 29.28 in 3.0 mi NNW 13.8 mph 20.7 mph 0.08 in Rain Light Rain
10:54 AM 39.0 °F 30.3 °F 35.1 °F 86% 29.27 in 6.0 mi North 16.1 mph - 0.13 in Rain Light Rain
11:10 AM 37.9 °F 29.2 °F 34.0 °F 86% 29.25 in 10.0 mi North 15.0 mph 25.3 mph 0.01 in Rain Light Rain
11:54 AM 36.0 °F 27.5 °F 30.9 °F 82% 29.26 in 10.0 mi North 12.7 mph 25.3 mph 0.02 in   Overcast
12:54 PM 36.0 °F 26.3 °F 28.9 °F 76% 29.31 in 10.0 mi North 16.1 mph 23.0 mph N/A   Overcast
1:08 PM 35.1 °F 26.4 °F 30.0 °F 82% 29.31 in 3.0 mi North 12.7 mph 23.0 mph 0.00 in   Overcast
1:13 PM 35.1 °F 25.2 °F 30.0 °F 82% 29.31 in 2.5 mi NNW 16.1 mph 24.2 mph 0.00 in   Overcast
1:40 PM 35.1 °F 26.4 °F 30.9 °F 85% 29.35 in 3.0 mi NNW 12.7 mph 20.7 mph 0.00 in Rain Light Rain
1:49 PM 35.6 °F 26.2 °F 30.2 °F 81% 29.36 in 2.5 mi NNW 15.0 mph 23.0 mph 0.00 in Snow Light Snow
1:54 PM 35.1 °F 24.5 °F 30.9 °F 85% 29.37 in 2.5 mi NNW 18.4 mph 25.3 mph 0.00 in Snow Light Snow
2:10 PM 34.0 °F 23.0 °F 30.0 °F 85% 29.38 in 2.5 mi NNW 18.4 mph 31.1 mph 0.00 in Snow Light Snow
2:18 PM 34.0 °F 23.4 °F 30.0 °F 85% 29.39 in 1.0 mi NNW 17.3 mph 26.5 mph 0.00 in Snow Light Snow
2:20 PM 34.0 °F 23.4 °F 28.9 °F 82% 29.39 in 0.8 mi NNW 17.3 mph - 0.00 in Snow Light Snow
2:39 PM 33.1 °F 22.2 °F 28.9 °F 85% 29.41 in 1.2 mi NNW 17.3 mph 27.6 mph 0.01 in Snow Light Snow
2:48 PM 33.8 °F 21.6 °F 26.6 °F 75% 29.43 in 3.0 mi NNW 23.0 mph 34.5 mph 0.01 in Snow Light Snow
2:54 PM 33.1 °F 20.3 °F 27.0 °F 78% 29.45 in 7.0 mi NNW 24.2 mph 34.5 mph 0.01 in Snow Light Snow
3:19 PM 32.0 °F 18.6 °F 26.1 °F 79% 29.47 in 2.5 mi NNW 25.3 mph 43.7 mph 0.00 in Snow Light Snow
3:28 PM 33.1 °F 23.0 °F 27.0 °F 78% 29.49 in 4.0 mi NNW 15.0 mph 39.1 mph 0.00 in Snow Light Snow
3:54 PM 33.1 °F 19.3 °F 24.1 °F 70% 29.55 in 10.0 mi NNW 28.8 mph 40.3 mph 0.00 in   Overcast
4:54 PM 30.9 °F 19.4 °F 21.9 °F 69% 29.64 in 10.0 mi NNW 17.3 mph 28.8 mph N/A   Mostly Cloudy
5:54 PM 28.0 °F 17.5 °F 19.9 °F 72% 29.72 in 4.0 mi NNW 12.7 mph 23.0 mph 0.00 in Snow Light Snow
6:54 PM 27.0 °F 16.7 °F 19.0 °F 72% 29.78 in 5.0 mi NNW 11.5 mph 23.0 mph 0.00 in Snow Light Snow
7:54 PM 25.0 °F 13.6 °F 17.1 °F 72% 29.84 in 10.0 mi NNW 12.7 mph 23.0 mph 0.00 in   Overcast
8:54 PM 24.1 °F 13.1 °F 15.1 °F 69% 29.88 in 10.0 mi NNW 11.5 mph 27.6 mph N/A   Overcast
9:54 PM 21.9 °F 7.8 °F 12.9 °F 68% 29.91 in 9.0 mi NNW 17.3 mph 24.2 mph 0.00 in   Overcast
10:54 PM 19.9 °F 9.3 °F 10.0 °F 65% 29.94 in 10.0 mi NNW 9.2 mph - N/A   Mostly Cloudy
11:10 PM 19.9 °F 7.9 °F 10.0 °F 65% 29.91 in 10.0 mi North 11.5 mph 19.6 mph N/A   Scattered Clouds
11:54 PM 18.0 °F 5.4 °F 9.0 °F 68% 29.95 in 10.0 mi NW 11.5 mph - N/A   Clear